EW5742 Weather Reports


time (UTC)temp
C
wind
direction
speed
KPH
gust
KPH
rain 1hr
cm
rain 24hr
cm
rain mn
cm
humidity
%
barometer
mb
20260502220049 13 338 0.0 3.2 0.15 1.22 1.22 93 1009.3
20260502214600 13 342 0.0 4.8 0.18 1.19 1.19 93 1008.9
20260502213048 13 30 1.6 8.0 0.20 1.17 1.17 93 1008.9
20260502211534 13 297 1.6 12.9 0.15 1.12 1.12 92 1009.2
20260502210031 13 329 3.2 9.7 0.13 1.07 1.07 92 1009.2
20260502204535 13 8 3.2 9.7 0.08 1.02 1.02 92 1009.1
20260502203053 13 359 4.8 12.9 0.13 0.97 0.97 92 1009.4
20260502201550 13 283 1.6 11.3 0.20 0.97 0.97 92 1009.3
20260502200112 13 349 0.0 9.7 0.20 0.94 0.94 92 1009.2
20260502194605 13 13 3.2 8.0 0.25 0.94 0.94 92 1009.3
20260502193058 13 324 0.0 8.0 0.20 0.84 0.84 92 1009.9
20260502191610 13 320 0.0 8.0 0.18 0.76 0.76 92 1010.1
20260502190033 13 307 0.0 8.0 0.18 0.71 0.71 92 1010.2
20260502184532 13 297 3.2 9.7 0.13 0.69 0.69 91 1010.4
20260502183017 13 350 1.6 8.0 0.13 0.64 0.64 91 1010.0
20260502181519 13 335 1.6 8.0 0.10 0.58 0.58 91 1009.8
20260502170126 13 336 0.0 8.0 0.23 0.43 0.43 92 1011.5
20260502163103 13 18 0.0 12.9 0.18 0.30 0.30 91 1011.5
20260502161528 13 88 1.6 4.8 0.15 0.25 0.25 91 1011.4
20260502151534 14 302 3.2 11.3 0.00 0.10 0.10 86 1011.3
20260502123015 13 307 1.6 11.3 0.00 0.10 0.10 93 1011.3
20260502121503 13 309 1.6 11.3 0.03 0.10 0.10 93 1011.2
20260502120114 13 315 1.6 8.0 0.03 0.10 0.10 93 1011.2
20260502114513 13 300 1.6 9.7 0.05 0.10 0.10 93 1011.0
20260502113012 13 347 1.6 6.4 0.05 0.10 0.10 93 1010.7
20260502110049 13 346 1.6 8.0 0.05 0.08 0.08 93 1010.6
20260502104609 13 335 0.0 3.2 0.05 0.05 0.05 93 1010.4
20260502103108 13 326 0.0 4.8 0.05 0.05 0.05 93 1010.5
20260502101610 13 340 0.0 4.8 0.03 0.03 0.03 93 1010.4
20260502091514 13 309 0.0 3.2 0.00 0.00 0.00 92 1010.2
20260502090110 13 311 0.0 0.0 0.00 0.00 0.00 92 1010.1
20260502070105 13 338 0.0 1.6 0.00 0.03 0.00 89 1010.6
20260502070003 13 338 0.0 1.6 0.00 0.03 0.00 89 1010.7
20260502064556 13 7 0.0 0.0 0.00 0.03 0.00 89 1010.7
20260502063106 13 7 0.0 0.0 0.00 0.03 0.00 88 1010.8
20260502061550 13 7 0.0 0.0 0.00 0.03 0.00 88 1010.8
20260502060112 13 7 0.0 1.6 0.00 0.03 0.00 88 1010.7
20260502054511 13 7 0.0 1.6 0.00 0.03 0.00 88 1011.1
20260502053006 12 7 0.0 1.6 0.00 0.03 0.00 88 1011.3
20260502051603 12 7 0.0 1.6 0.00 0.03 0.00 87 1011.4
20260502050101 12 7 0.0 0.0 0.00 0.03 0.00 87 1011.6
20260502044557 12 7 0.0 0.0 0.00 0.03 0.00 86 1011.6
20260502043104 12 338 0.0 0.0 0.00 0.03 0.00 86 1011.8
20260502041554 12 338 0.0 0.0 0.00 0.03 0.00 85 1012.0
20260502040053 13 338 0.0 0.0 0.00 0.03 0.03 84 1012.0
20260502034600 13 338 0.0 1.6 0.00 0.03 0.03 84 1012.3
20260502033001 12 359 0.0 1.6 0.00 0.03 0.03 84 1012.2
20260502031558 12 325 0.0 4.8 0.00 0.03 0.03 85 1012.5
20260502030106 12 6 0.0 1.6 0.00 0.03 0.03 85 1012.7
20260502024551 12 7 0.0 0.0 0.00 0.03 0.03 84 1012.8
20260502023056 12 7 0.0 0.0 0.00 0.03 0.03 83 1012.5
20260502021540 12 7 0.0 1.6 0.00 0.03 0.03 83 1012.7
20260502020147 12 344 0.0 1.6 0.00 0.03 0.03 83 1012.7
20260502014515 12 344 0.0 1.6 0.00 0.03 0.03 82 1012.8
20260502013010 13 302 0.0 1.6 0.00 0.03 0.03 81 1012.7
20260502011538 13 302 0.0 1.6 0.00 0.03 0.03 80 1013.0
20260502010042 13 302 0.0 0.0 0.00 0.03 0.03 78 1012.7
20260502004533 13 302 0.0 1.6 0.00 0.03 0.03 77 1012.5
20260502003034 14 302 0.0 3.2 0.00 0.03 0.03 75 1012.4
20260502001632 14 96 0.0 3.2 0.00 0.03 0.03 74 1012.5
20260502000012 14 45 1.6 4.8 0.00 0.03 0.03 73 1012.4
20260501234516 15 44 0.0 3.2 0.00 0.03 0.03 72 1012.5
20260501233054 15 86 0.0 3.2 0.00 0.03 0.03 71 1012.7
20260501231546 15 39 0.0 6.4 0.00 0.03 0.03 70 1012.8
20260501230048 15 58 0.0 6.4 0.00 0.03 0.03 69 1012.8
20260501224556 15 13 0.0 9.7 0.00 0.03 0.03 67 1012.9
20260501223021 16 39 0.0 4.8 0.00 0.03 0.03 67 1013.2
20260501221506 15 77 3.2 9.7 0.00 0.03 0.03 66 1013.0